Theta_e
318 319 318 319 318 316 315 314 313 311 310 309 307 306 306 305 305 304 303 302 303 304
306 311 313 312 313 313 313 312 309 307 306 305 304 303 303 301 300 300 301 301 301 302
305 306 307 307 306 307 306 305 304 303 303 301 301 300 299 298 298 298 298 299 298 299
303 304 304 304 303 302 302 302 302 301 300 300 299 298 296 296 296 296 296 296 295 296
302 301 301 300 300 300 299 299 299 299 298 298 297 296 294 294 294 293 293 293 293 294
298 298 298 297 297 298 297 296 296 296 296 295 295 293 293 293 292 291 291 291 290 291
297 297 296 295 295 295 295 294 294 294 294 293 293 292 292 292 291 290 290 291 291 292
296 296 295 294 293 293 293 292 292 292 292 292 292 293 291 291 290 290 291 294 294 294
295 295 294 292 292 291 291 290 290 290 291 290 293 296 297 295 291 291 291 292 293 294
295 294 293 292 291 290 289 289 289 289 289 289 289 295 297 297 293 289 289 291 291 291
295 294 292 291 290 289 288 288 288 288 288 288 290 295 296 296 290 286 287 289 290 289
294 293 291 290 289 288 288 287 288 289 288 290 292 295 296 295 289 284 288 289 289 288
294 293 291 290 289 287 287 287 289 288 288 292 291 294 295 295 289 287 287 286 285 289
294 294 293 289 288 287 286 283 286 287 290 290 291 292 295 296 288 287 285 284 283 281
Wind_Speed
3 2 2 1 2 3 3 4 4 4 5 8 6 5 5 3 2 3 2 0 2 2
3 2 3 3 3 3 3 4 5 5 6 4 5 3 4 4 3 2 0 0 1 2
1 2 3 4 4 5 5 6 6 6 6 6 5 4 3 4 2 2 0 1 2 2
2 2 4 5 5 5 6 7 6 6 6 5 5 5 3 3 2 3 2 2 2 4
3 4 5 5 6 6 6 6 6 6 6 5 5 5 3 4 3 3 3 3 3 3
4 4 5 5 5 5 6 6 5 6 6 5 5 5 4 4 3 3 2 1 1 2
6 6 6 6 6 6 5 6 5 5 6 5 5 4 3 3 2 2 1 1 2 1
6 5 6 6 6 6 5 5 5 5 5 4 3 2 2 1 1 2 4 3 2 3
6 6 6 6 6 6 6 5 5 4 4 3 1 1 2 2 1 3 3 3 2 1
6 6 6 6 6 6 6 5 5 5 4 3 2 3 2 4 1 2 3 3 2 2
7 7 6 7 6 5 5 6 4 5 5 4 3 4 5 3 3 1 2 3 4 4
7 7 7 7 7 5 5 5 5 4 5 5 4 6 6 5 4 2 4 3 4 4
7 8 9 7 7 5 4 5 5 4 5 7 5 7 8 7 3 4 3 3 4 6
6 7 7 6 5 5 5 4 5 6 5 5 5 5 9 12 5 4 3 3 3 3
Wind_Direction
259 250 224 167 188 173 153 143 162 112 131 150 135 126 124 125 115 85 85 228 259 265
302 251 195 168 168 170 152 117 119 124 124 102 92 105 123 113 103 82 94 283 281 259
230 213 174 147 143 135 123 127 133 123 115 110 108 89 83 93 98 105 14 64 301 278
170 155 142 140 140 136 128 135 131 132 129 121 118 109 91 86 69 52 8 8 328 297
135 124 113 113 123 125 123 119 128 126 112 116 111 97 104 80 53 41 9 337 340 307
157 142 133 126 115 112 120 114 105 112 120 125 119 124 113 108 83 58 50 9 31 343
183 174 157 146 138 135 131 130 127 119 121 124 124 118 108 92 77 92 140 240 239 271
187 164 152 150 145 133 128 128 125 119 114 121 130 146 140 142 278 289 275 236 282 290
182 172 170 161 149 138 130 131 127 132 141 150 172 228 233 196 251 293 281 272 277 234
183 178 177 165 156 156 161 155 158 158 158 173 211 267 262 285 287 265 263 240 211 207
184 179 174 170 172 164 157 172 169 185 180 174 204 240 256 241 145 240 247 232 203 206
182 179 172 181 179 177 167 170 178 179 186 187 216 234 250 203 174 206 242 223 207 205
182 180 187 180 179 169 171 177 177 193 212 212 205 234 245 239 171 202 211 215 218 231
199 193 184 169 161 166 164 159 187 193 205 208 206 223 247 251 184 198 191 203 211 230